Time,TemperatureF,DewpointF,PressureIn,WindDirection,WindDirectionDegrees,WindSpeedMPH,WindSpeedGustMPH,Humidity,HourlyPrecipIn,Conditions,Clouds,dailyrainin,SoftwareType,DateUTC
2013-02-25 00:01:00,50.0,21.0,30.35,North,-999,0.0,0.0,31,0.00,,,-99.99,,2013-02-25 08:01:00,
2013-02-25 00:31:00,50.0,21.0,30.35,North,-999,0.0,0.0,31,0.00,,,-99.99,,2013-02-25 08:31:00,
2013-02-25 00:42:00,50.0,9.0,30.36,North,0,0.0,2.0,19,0.00,,,-99.99,,2013-02-25 08:42:00,
2013-02-25 00:52:00,50.0,9.0,30.36,North,0,0.0,2.0,19,0.00,,,-99.99,,2013-02-25 08:52:00,
2013-02-25 01:01:00,50.0,9.0,30.36,North,0,0.0,2.0,19,0.00,,,-99.99,,2013-02-25 09:01:00,
2013-02-25 01:12:00,50.0,14.0,30.36,North,0,0.0,1.0,23,0.00,,,-99.99,,2013-02-25 09:12:00,
2013-02-25 01:21:00,50.0,14.0,30.36,North,0,0.0,1.0,23,0.00,,,-99.99,,2013-02-25 09:21:00,
2013-02-25 01:31:00,50.0,13.0,30.36,WNW,300,2.0,3.0,22,0.00,,,-99.99,,2013-02-25 09:31:00,
2013-02-25 01:42:00,50.0,13.0,30.36,WNW,300,2.0,3.0,22,0.00,,,-99.99,,2013-02-25 09:42:00,
2013-02-25 01:52:00,50.0,13.0,30.36,WNW,300,2.0,3.0,22,0.00,,,-99.99,,2013-02-25 09:52:00,
2013-02-25 02:01:00,50.0,11.0,30.36,NW,310,1.0,1.0,20,0.00,,,-99.99,,2013-02-25 10:01:00,
2013-02-25 07:42:00,50.0,19.0,30.32,North,0,0.0,1.0,29,0.00,,,-99.99,,2013-02-25 15:42:00,
2013-02-25 07:52:00,50.0,19.0,30.32,North,0,0.0,1.0,29,0.00,,,-99.99,,2013-02-25 15:52:00,
2013-02-25 08:01:00,50.0,16.0,30.32,North,0,0.0,1.0,26,0.00,,,-99.99,,2013-02-25 16:01:00,
2013-02-25 08:11:00,50.0,17.0,30.32,North,0,0.0,2.0,27,0.00,,,-99.99,,2013-02-25 16:11:00,
2013-02-25 08:21:00,51.0,18.0,30.33,North,0,0.0,2.0,27,0.00,,,-99.99,,2013-02-25 16:21:00,
2013-02-25 08:31:00,51.0,18.0,30.33,North,0,0.0,2.0,27,0.00,,,-99.99,,2013-02-25 16:31:00,
2013-02-25 08:41:00,51.0,17.0,30.32,WSW,240,2.0,2.0,26,0.00,,,-99.99,,2013-02-25 16:41:00,
2013-02-25 08:51:00,52.0,20.0,30.31,North,0,0.0,2.0,28,0.00,,,-99.99,,2013-02-25 16:51:00,
2013-02-25 09:01:00,52.0,20.0,30.31,North,0,0.0,2.0,28,0.00,,,-99.99,,2013-02-25 17:01:00,
2013-02-25 09:11:00,52.0,19.0,30.30,SW,230,2.0,3.0,27,0.00,,,-99.99,,2013-02-25 17:11:00,
2013-02-25 09:31:00,53.0,19.0,30.30,SW,220,1.0,2.0,26,0.00,,,-99.99,,2013-02-25 17:31:00,
2013-02-25 09:41:00,53.0,20.0,30.29,SW,220,4.0,4.0,27,0.00,,,-99.99,,2013-02-25 17:41:00,
2013-02-25 09:52:00,53.0,20.0,30.29,SW,220,4.0,4.0,27,0.00,,,-99.99,,2013-02-25 17:52:00,
2013-02-25 10:01:00,54.0,22.0,30.28,SSW,210,4.0,5.0,28,0.00,,,-99.99,,2013-02-25 18:01:00,
2013-02-25 10:12:00,54.0,22.0,30.28,SSW,210,4.0,5.0,28,0.00,,,-99.99,,2013-02-25 18:12:00,
2013-02-25 10:21:00,54.0,22.0,30.28,SSW,210,4.0,5.0,28,0.00,,,-99.99,,2013-02-25 18:21:00,
2013-02-25 10:32:00,54.0,22.0,30.28,SSW,210,3.0,3.0,28,0.00,,,-99.99,,2013-02-25 18:32:00,
2013-02-25 10:42:00,54.0,20.0,30.29,SSW,210,3.0,6.0,26,0.00,,,-99.99,,2013-02-25 18:42:00,
2013-02-25 10:52:00,54.0,20.0,30.29,SSW,210,3.0,6.0,26,0.00,,,-99.99,,2013-02-25 18:52:00,
2013-02-25 11:01:00,54.0,22.0,30.29,SW,220,1.0,1.0,28,0.00,,,-99.99,,2013-02-25 19:01:00,
2013-02-25 11:11:00,55.0,20.0,30.29,North,0,0.0,6.0,25,0.00,,,-99.99,,2013-02-25 19:11:00,
2013-02-25 11:21:00,55.0,20.0,30.29,North,0,0.0,6.0,25,0.00,,,-99.99,,2013-02-25 19:21:00,
2013-02-25 11:31:00,55.0,20.0,30.29,North,0,0.0,6.0,25,0.00,,,-99.99,,2013-02-25 19:31:00,
2013-02-25 11:41:00,57.0,23.0,30.27,North,0,0.0,4.0,27,0.00,,,-99.99,,2013-02-25 19:41:00,
2013-02-25 11:52:00,57.0,23.0,30.27,North,0,0.0,4.0,27,0.00,,,-99.99,,2013-02-25 19:52:00,
2013-02-25 12:01:00,57.0,24.0,30.26,North,-999,0.0,0.0,28,0.00,,,-99.99,,2013-02-25 20:01:00,
2013-02-25 12:11:00,57.0,23.0,30.25,North,0,0.0,6.0,27,0.00,,,-99.99,,2013-02-25 20:11:00,
2013-02-25 12:21:00,57.0,23.0,30.25,North,0,0.0,6.0,27,0.00,,,-99.99,,2013-02-25 20:21:00,
2013-02-25 12:31:00,58.0,22.0,30.23,North,0,0.0,1.0,25,0.00,,,-99.99,,2013-02-25 20:31:00,
2013-02-25 12:41:00,58.0,24.0,30.22,SW,230,1.0,6.0,27,0.00,,,-99.99,,2013-02-25 20:41:00,
2013-02-25 12:52:00,58.0,24.0,30.22,SW,230,1.0,6.0,27,0.00,,,-99.99,,2013-02-25 20:52:00,
2013-02-25 13:01:00,57.0,26.0,30.22,SW,230,2.0,4.0,30,0.00,,,-99.99,,2013-02-25 21:01:00,
2013-02-25 13:11:00,56.0,23.0,30.20,SW,230,8.0,9.0,27,0.00,,,-99.99,,2013-02-25 21:11:00,
2013-02-25 13:21:00,56.0,23.0,30.20,SW,230,8.0,9.0,27,0.00,,,-99.99,,2013-02-25 21:21:00,
2013-02-25 13:31:00,55.0,21.0,30.20,SW,230,5.0,5.0,26,0.00,,,-99.99,,2013-02-25 21:31:00,
2013-02-25 13:41:00,55.0,21.0,30.20,SW,230,5.0,5.0,26,0.00,,,-99.99,,2013-02-25 21:41:00,
2013-02-25 13:52:00,55.0,21.0,30.20,SW,230,5.0,5.0,26,0.00,,,-99.99,,2013-02-25 21:52:00,
2013-02-25 14:01:00,55.0,22.0,30.19,SW,230,6.0,7.0,27,0.00,,,-99.99,,2013-02-25 22:01:00,
2013-02-25 14:11:00,55.0,22.0,30.19,SW,230,6.0,7.0,27,0.00,,,-99.99,,2013-02-25 22:11:00,
2013-02-25 14:21:00,55.0,22.0,30.19,SW,230,6.0,7.0,27,0.00,,,-99.99,,2013-02-25 22:21:00,
2013-02-25 14:31:00,57.0,23.0,30.18,SW,230,3.0,5.0,27,0.00,,,-99.99,,2013-02-25 22:31:00,
2013-02-25 14:42:00,57.0,23.0,30.18,SW,230,3.0,5.0,27,0.00,,,-99.99,,2013-02-25 22:42:00,
2013-02-25 14:52:00,57.0,23.0,30.18,SW,230,3.0,5.0,27,0.00,,,-99.99,,2013-02-25 22:52:00,
2013-02-25 15:01:00,57.0,22.0,30.17,SW,230,2.0,4.0,26,0.00,,,-99.99,,2013-02-25 23:01:00,
2013-02-25 15:11:00,57.0,24.0,30.17,SW,230,5.0,6.0,28,0.00,,,-99.99,,2013-02-25 23:11:00,
2013-02-25 15:22:00,57.0,24.0,30.17,SW,230,5.0,6.0,28,0.00,,,-99.99,,2013-02-25 23:22:00,
2013-02-25 15:30:00,55.0,26.0,30.15,SW,220,2.0,2.0,33,0.00,,,-99.99,,2013-02-25 23:30:00,
2013-02-25 15:31:00,57.0,25.0,30.16,SW,220,2.0,2.0,29,0.00,,,-99.99,,2013-02-25 23:31:00,
2013-02-25 15:41:00,56.0,26.0,30.16,SW,220,4.0,6.0,31,0.00,,,-99.99,,2013-02-25 23:41:00,
2013-02-25 15:52:00,56.0,26.0,30.16,SW,220,4.0,6.0,31,0.00,,,-99.99,,2013-02-25 23:52:00,
2013-02-25 16:01:00,55.0,26.0,30.15,SW,220,2.0,2.0,33,0.00,,,-99.99,,2013-02-26 00:01:00,
2013-02-25 16:11:00,55.0,26.0,30.15,SW,220,2.0,2.0,33,0.00,,,-99.99,,2013-02-26 00:11:00,
2013-02-25 16:21:00,55.0,26.0,30.15,SW,220,2.0,2.0,33,0.00,,,-99.99,,2013-02-26 00:21:00,
2013-02-25 16:42:00,57.0,27.0,30.12,North,0,0.0,2.0,32,0.00,,,-99.99,,2013-02-26 00:42:00,
2013-02-25 16:52:00,57.0,27.0,30.12,North,0,0.0,2.0,32,0.00,,,-99.99,,2013-02-26 00:52:00,
2013-02-25 17:02:00,57.0,27.0,30.12,North,0,0.0,2.0,32,0.00,,,-99.99,,2013-02-26 01:02:00,
2013-02-25 17:11:00,57.0,27.0,30.12,North,0,0.0,2.0,32,0.00,,,-99.99,,2013-02-26 01:11:00,
2013-02-25 18:01:00,54.0,30.0,30.08,North,0,0.0,3.0,39,0.00,,,-99.99,,2013-02-26 02:01:00,
2013-02-25 18:11:00,54.0,30.0,30.08,North,0,0.0,3.0,39,0.00,,,-99.99,,2013-02-26 02:11:00,
2013-02-25 18:21:00,54.0,30.0,30.08,North,0,0.0,3.0,39,0.00,,,-99.99,,2013-02-26 02:21:00,
2013-02-25 18:31:00,51.0,29.0,30.08,WNW,290,1.0,1.0,43,0.00,,,-99.99,,2013-02-26 02:31:00,
2013-02-25 18:42:00,51.0,29.0,30.08,WNW,290,1.0,1.0,43,0.00,,,-99.99,,2013-02-26 02:42:00,
2013-02-25 18:52:00,51.0,29.0,30.08,WNW,290,1.0,1.0,43,0.00,,,-99.99,,2013-02-26 02:52:00,
2013-02-25 19:01:00,51.0,28.0,30.09,WNW,290,2.0,3.0,40,0.00,,,-99.99,,2013-02-26 03:01:00,
2013-02-25 19:11:00,51.0,28.0,30.09,WNW,290,2.0,3.0,40,0.00,,,-99.99,,2013-02-26 03:11:00,
2013-02-25 19:21:00,51.0,28.0,30.09,WNW,290,2.0,3.0,40,0.00,,,-99.99,,2013-02-26 03:21:00,
2013-02-25 19:31:00,52.0,27.0,30.10,WNW,300,3.0,3.0,38,0.00,,,-99.99,,2013-02-26 03:31:00,
2013-02-25 19:42:00,52.0,27.0,30.10,WNW,300,3.0,3.0,38,0.00,,,-99.99,,2013-02-26 03:42:00,
2013-02-25 19:52:00,52.0,27.0,30.10,WNW,300,3.0,3.0,38,0.00,,,-99.99,,2013-02-26 03:52:00,
2013-02-25 20:01:00,53.0,26.0,30.09,North,0,0.0,2.0,35,0.00,,,-99.99,,2013-02-26 04:01:00,
2013-02-25 20:11:00,53.0,26.0,30.09,North,0,0.0,2.0,35,0.00,,,-99.99,,2013-02-26 04:11:00,
2013-02-25 20:21:00,53.0,26.0,30.09,North,0,0.0,2.0,35,0.00,,,-99.99,,2013-02-26 04:21:00,
2013-02-25 20:31:00,51.0,28.0,30.11,North,-999,0.0,0.0,40,0.00,,,-99.99,,2013-02-26 04:31:00,
2013-02-25 20:42:00,51.0,28.0,30.11,North,-999,0.0,0.0,40,0.00,,,-99.99,,2013-02-26 04:42:00,
2013-02-25 20:52:00,51.0,28.0,30.11,North,-999,0.0,0.0,40,0.00,,,-99.99,,2013-02-26 04:52:00,
2013-02-25 21:01:00,53.0,26.0,30.11,West,260,2.0,4.0,35,0.00,,,-99.99,,2013-02-26 05:01:00,
2013-02-25 21:11:00,54.0,26.0,30.11,North,0,0.0,5.0,34,0.00,,,-99.99,,2013-02-26 05:11:00,
2013-02-25 21:21:00,54.0,26.0,30.11,North,0,0.0,5.0,34,0.00,,,-99.99,,2013-02-26 05:21:00,
2013-02-25 21:31:00,54.0,23.0,30.12,West,280,2.0,2.0,30,0.00,,,-99.99,,2013-02-26 05:31:00,
2013-02-25 21:42:00,54.0,23.0,30.12,West,280,2.0,2.0,30,0.00,,,-99.99,,2013-02-26 05:42:00,
2013-02-25 21:52:00,54.0,23.0,30.12,West,280,2.0,2.0,30,0.00,,,-99.99,,2013-02-26 05:52:00,
2013-02-25 22:01:00,53.0,22.0,30.12,WNW,300,1.0,3.0,29,0.00,,,-99.99,,2013-02-26 06:01:00,
2013-02-25 22:11:00,53.0,22.0,30.13,WNW,300,1.0,3.0,29,0.00,,,-99.99,,2013-02-26 06:11:00,
2013-02-25 22:21:00,53.0,22.0,30.13,WNW,300,1.0,3.0,29,0.00,,,-99.99,,2013-02-26 06:21:00,
2013-02-25 22:31:00,53.0,21.0,30.13,WNW,290,2.0,2.0,28,0.00,,,-99.99,,2013-02-26 06:31:00,
2013-02-25 22:41:00,52.0,21.0,30.14,WNW,290,1.0,6.0,29,0.00,,,-99.99,,2013-02-26 06:41:00,
2013-02-25 22:52:00,52.0,21.0,30.14,WNW,290,1.0,6.0,29,0.00,,,-99.99,,2013-02-26 06:52:00,
2013-02-25 23:01:00,52.0,22.0,30.14,WNW,290,1.0,2.0,30,0.00,,,-99.99,,2013-02-26 07:01:00,
2013-02-25 23:11:00,51.0,20.0,30.13,North,0,0.0,2.0,29,0.00,,,-99.99,,2013-02-26 07:11:00,
2013-02-25 23:22:00,51.0,20.0,30.13,North,0,0.0,2.0,29,0.00,,,-99.99,,2013-02-26 07:22:00,
2013-02-25 23:31:00,51.0,22.0,30.13,North,-999,0.0,0.0,32,0.00,,,-99.99,,2013-02-26 07:31:00,
2013-02-25 23:41:00,51.0,22.0,30.12,North,-999,0.0,0.0,32,0.00,,,-99.99,,2013-02-26 07:41:00,
2013-02-25 23:52:00,51.0,22.0,30.12,North,-999,0.0,0.0,32,0.00,,,-99.99,,2013-02-26 07:52:00,